Home   Weather   Cagliari   Past weeks

Flag for Italy Past Weather in Cagliari, Italy — Yesterday and Last 2 Weeks

73 °F


Feels Like: 74 °F
Forecast: 65 / 81 °F
Wind: 8 mph from South

Location: Cagliari / Elmas

Current Time: Oct 23, 2016 at 6:25:32 PM

Latest Report: Oct 23, 2016 at 5:50 PM

Visibility: 10 mi

Pressure: 29.92 "Hg

Humidity: 78%

Dew Point: 66 °F

Location of CagliariLocation

Past Weather in Cagliari — Graph


Cagliari Temperature Yesterday

Maximum temperature yesterday: 70 °F (at 1:50 PM)
Minimum temperature yesterday: 48 °F (at 6:50 AM)
Average temperature yesterday: 60 °F

High & Low Weather Summary for the Past Weeks

High79 °F (Oct 14, 1:20 PM)100% (Oct 16, 6:20 AM)30.24 "Hg (Oct 16, 6:20 AM)
Low48 °F (Oct 22, 6:50 AM)38% (Oct 11, 2:50 PM)29.62 "Hg (Oct 14, 3:50 AM)
Average66 °F76%29.98 "Hg
* Reported Oct 8 4:20 PM — Oct 23 4:50 PM, Cagliari, Weather by CustomWeather, © 2016

Note: Actual official high and low records may vary slightly from our data, if they occured in-between our weather recording intervals... More about our weather records


Cagliari Weather History for the Previous 24 Hours

Scroll right to see more
Time TempWeatherWind HumidityBarometerVisibility
4:50 PM
Sun, Oct 23
77 °FSunny.7 mph61%29.92 "Hg10 mi
4:20 PM77 °FSunny.6 mph65%29.92 "Hg10 mi
3:50 PM77 °FSunny.6 mph61%29.92 "Hg10 mi
3:20 PM77 °FSunny.8 mph61%29.89 "Hg10 mi
2:50 PM77 °FSunny.9 mph61%29.89 "Hg10 mi
2:20 PM75 °FSunny.12 mph69%29.92 "Hg10 mi
1:50 PM75 °FSunny.12 mph69%29.92 "Hg10 mi
1:20 PM75 °FPassing clouds.12 mph69%29.92 "HgN/A
12:50 PM75 °FSunny.12 mph69%29.95 "Hg10 mi
12:20 PM73 °FSunny.14 mph74%29.95 "Hg10 mi
11:50 AM75 °FSunny.9 mph69%29.92 "Hg10 mi
11:20 AM73 °FSunny.9 mph74%29.92 "Hg10 mi
10:50 AM72 °FSunny.8 mph83%29.92 "Hg10 mi
10:20 AM72 °FPassing clouds.3 mph78%29.92 "HgN/A
9:50 AM68 °FPassing clouds.2 mph88%29.92 "HgN/A
9:20 AM64 °FScattered clouds.5 mph100%29.89 "HgN/A
8:50 AM63 °FScattered showers. Scattered clouds.5 mph94%29.92 "HgN/A
8:20 AM63 °FScattered clouds.3 mph94%29.89 "HgN/A
7:50 AM61 °FPassing clouds.5 mph100%29.89 "HgN/A
7:20 AM63 °FClear.5 mph94%29.86 "Hg10 mi
6:50 AM66 °FClear.2 mph94%29.89 "Hg10 mi
6:20 AM66 °FPassing clouds.6 mph94%29.86 "HgN/A
5:50 AM66 °FPassing clouds.7 mph94%29.86 "HgN/A
5:20 AM66 °FClear.6 mph94%29.86 "Hg10 mi
4:50 AM64 °FPassing clouds.5 mph94%29.89 "HgN/A
4:20 AM68 °FPassing clouds.8 mph88%29.89 "HgN/A
3:50 AM66 °FThunderstorms. Passing clouds.9 mph88%29.89 "HgN/A
3:20 AM66 °FThunderstorms. Passing clouds.8 mph83%29.92 "HgN/A
2:50 AM66 °FPassing clouds.14 mph83%29.95 "HgN/A
2:20 AM66 °FPassing clouds.2 mph78%29.92 "HgN/A
1:50 AM66 °FPassing clouds.3 mph78%29.92 "HgN/A
1:20 AM66 °FPassing clouds.3 mph73%29.92 "HgN/A
12:50 AM66 °FPassing clouds.5 mph73%29.92 "HgN/A
12:20 AM68 °FPassing clouds.6 mph64%29.95 "HgN/A
11:50 PM
Sat, Oct 22
68 °FPassing clouds.8 mph64%29.95 "HgN/A
11:20 PM64 °FClear.5 mph78%29.95 "Hg10 mi
10:50 PM64 °FClear.5 mph78%29.95 "Hg10 mi
10:20 PM64 °FPassing clouds.7 mph78%29.95 "HgN/A
9:50 PM66 °FClear.12 mph68%29.95 "Hg10 mi
9:20 PM66 °FClear.13 mph73%29.95 "Hg10 mi
8:50 PM66 °FClear.12 mph73%29.95 "Hg10 mi
8:20 PM66 °FClear.13 mph73%29.95 "Hg10 mi
7:50 PM66 °FClear.10 mph73%29.95 "Hg10 mi
7:20 PM66 °FClear.9 mph68%29.95 "Hg10 mi
6:50 PM66 °FClear.9 mph64%29.95 "Hg10 mi
6:20 PM66 °FSunny.9 mph60%29.95 "Hg10 mi
Weather by CustomWeather, © 2016

See weather overviewHow to use our weather pages